Location: Unspecified
(0.0000°N, 0.0000°E)
Time: 20:21:13
(UTC+00:00)

Orbcomm A7 (FM11) - Visible Passes

Search period start: 26 February 2024 00:00
Search period end: 07 March 2024 00:00
Orbit: 748 x 757 km, 45.0° (Epoch: 25 February)

Date Brightness Start Highest point End Pass type
(mag) Time Alt. Az. Time Alt. Az. Time Alt. Az.
28 Feb 9.5 20:30:45 10° SSW 20:31:03 11° SSW 20:31:03 11° SSW visible
29 Feb 8.8 19:47:20 10° S 19:49:23 17° SSE 19:49:23 17° SSE visible
01 Mar 8.9 19:04:37 10° SSE 19:06:48 12° SE 19:07:50 12° ESE visible
01 Mar 9.3 20:46:24 10° SW 20:47:43 18° SW 20:47:43 18° SW visible
02 Mar 7.4 20:02:10 10° SW 20:06:17 53° SSW 20:06:17 53° SSW visible
03 Mar 7.3 19:18:09 10° SSW 19:23:11 45° SE 19:24:56 33° E visible
03 Mar 9.8 21:04:13 10° W 21:04:51 12° W 21:04:51 12° W visible
04 Mar 8.0 18:34:25 10° SSW 18:38:56 28° SE 18:43:26 10° ENE visible
04 Mar 8.4 20:19:05 10° WSW 20:23:36 30° NW 20:23:36 30° NW visible
05 Mar 7.7 19:34:21 10° WSW 19:39:26 48° NW 19:42:25 23° NNE visible
06 Mar 7.1 18:49:54 10° SW 18:55:11 77° NW 19:00:27 10° NE visible
